Regional Weather Roundup
Issued by NWS Wakefield, VA

Home | Current Version | Previous Version | Graphics & Text | Print | Product List | Glossary On
Versions: 1 2 3 4 5 6 7 8 9 10 11 12 13 14 15 16 17 18 19 20 21 22 23 24 25 26 27 28 29 30 31 32 33 34 35 36 37 38 39 40 41 42 43 44 45 46 47 48 49 50
000
ASUS41 KAKQ 011715
RWRAKQ

REGIONAL WEATHER ROUNDUP
NATIONAL WEATHER SERVICE WAKEFIELD VA
100 PM EDT SAT AUG 01 2015

Note: "fair" indicates few or no clouds below 12,000 feet with no
significant weather and/or obstructions to visibility. * = Denotes
station may not report precipitation (e.g., rain,snow,etc.),
thunder or fog.

VAZ042-051-052>054-056-011800-
NORTHERN VIRGINIA

CITY           SKY/WX    TMP DP  RH WIND       PRES   REMARKS
WASH NATIONAL  PTSUNNY   90  63  40 NW7       29.89F
DULLES         PTSUNNY   84  62  47 VRB5      29.90F
FORT BELVOIR   NOT AVBL
QUANTICO       NOT AVBL
FREDERICKSBRG* SUNNY     91  64  40 S6        29.88F
STAFFORD*      PTSUNNY   85  64  48 W7        29.93F
WARRENTON      SUNNY     88  65  46 S3        29.91S
CULPEPER*      MOSUNNY   84  64  50 CALM      29.91F
MANASSAS*      PTSUNNY   84  63  48 S6        29.90F
LEESBURG*      PTSUNNY   84  66  54 W6        29.92S
WINCHESTER     MOSUNNY   88  57  35 W5        29.92F
FRONT ROYAL*   FAIR      82  64  54 W6        29.91F
LURAY*         FAIR      90  59  35 W9        29.93F
$$

VAZ048-049-060>072-079>083-011800-
CENTRAL AND SOUTH CENTRAL VIRGINIA

CITY           SKY/WX    TMP DP  RH WIND       PRES   REMARKS
RICHMOND       MOSUNNY   91  59  33 SW14      29.90F
CHESTERFIELD*    N/A     90  59  35 SW9       29.92F
PETERSBURG*    SUNNY     89  67  47 SW6       29.92F
HANOVER        SUNNY     89  61  38 SW10      29.92F
TAPPAHANNOCK*  SUNNY     87  63  43 CALM      29.91F
QUINTON*       FAIR      88  61  39 S3        29.90F
CHARLOTTSVILLE SUNNY     85  64  49 SW6       29.92F
GORDONSVILLE*  FAIR      84  64  51 W3        29.91F
ORANGE*        SUNNY     88  63  42 CALM      29.93S
LOUISA*        SUNNY     88  64  45 S7        29.90F
BUMPASS*       PTSUNNY   88  62  41 W3        29.90F
FARMVILLE*     MOSUNNY   89  58  33 S9        29.91F
CREWE*         FAIR     N/A N/A N/A S3        29.92F
FORT PICKETT*  FAIR      88  59  37 NW5       29.93F
CHASE CITY*    FAIR      88  64  45 CALM      29.94F
CLARKSVILLE*   FAIR      86  61  42 W5        29.94F
SOUTH HILL*    SUNNY     86  61  42 W5        30.00F
LAWRENCEVILLE* FAIR      88  61  40 W6        29.93F
EMPORIA*       SUNNY     88  63  42 SW5       29.93F
$$

VAZ088>098-011800-
SOUTHEAST VIRGINIA

CITY           SKY/WX    TMP DP  RH WIND       PRES   REMARKS
NORFOLK        PTSUNNY   87  60  40 VRB3      29.90F
VIRGINIA BEACH MOSUNNY   92  60  34 SW8       29.90F
NORFOLK NAVAL  PTSUNNY   88  66  48 W6        29.91F
WEST POINT*    SUNNY     90  62  39 SE3       29.91F
SALUDA*        FAIR      87  67  50 SW5       29.90F
NEWPORT NEWS   SUNNY     89  63  41 SW10      29.91F
LANGLEY AFB    MOSUNNY   88  66  48 W7        29.90F
FORT EUSTIS    NOT AVBL
WILLIAMSBURG*  SUNNY     91  68  46 S6        29.91F HX  95
HR EXEC AP*    FAIR      90  68  48 W5        29.92F
FRANKLIN*      MOSUNNY   90  60  36 W8        29.91F
WAKEFIELD      SUNNY     90  61  37 MISG      29.91F
$$

VAZ020-022-025-037-045-011800-
WEST CENTRAL AND SOUTHWEST VIRGINIA

CITY           SKY/WX    TMP DP  RH WIND       PRES   REMARKS
STAUNTON*      PTSUNNY   87  56  34 NW7       29.96F
WAYNESBORO*    FAIR      81  64  54 SW6       29.97F
HOT SPRINGS VA PTSUNNY   71  56  58 W8        30.09F
LYNCHBURG      SUNNY     84  62  47 VRB6      29.96F
DANVILLE       SUNNY     87  64  46 CALM      29.95F
SOUTH BOSTON*  FAIR      87  62  44 SW5       29.94F
MARTINSVILLE   SUNNY     89  55  31 NW7       30.00S
ROANOKE        MOSUNNY   86  54  33 NW12G28   29.99F
BLACKSBURG     SUNNY     80  57  45 NW12G17   30.07F
DUBLIN*          N/A     81  56  42 W5        30.06F
MARION*        PTSUNNY   76  56  49 W9G23     30.11F
HILLSVILLE*    SUNNY     77  52  41 NW12G17   30.06F
RICHLANDS*     PTSUNNY   76  59  57 W6        30.10F
WISE*          PTSUNNY   81  52  36 N8        30.11F
ABINGDON*      MOSUNNY   81  53  38 NE7       30.08F
$$

MDZ021>025-VAZ099-100-011800-
SOUTHERN MARYLAND AND THE DELMARVA PENINSULA

CITY           SKY/WX    TMP DP  RH WIND       PRES   REMARKS
PATUXENT RIVER MOSUNNY   88  62  41 W8        29.88F
BAY BRIDGE APT   N/A     82  63  51 W5        29.88F
LEONARDTOWN    SUNNY     88  57  35 CALM      29.90F
DOVER          SUNNY     87  69  55 W9        29.85F
GEORGETOWN     SUNNY     89  62  40 W8G18     29.88F
EASTON         MOSUNNY   88  66  48 NW9       29.92F
CAMBRIDGE      SUNNY     86  61  42 S3        29.87F
SALISBURY      SUNNY     87  67  51 SW9       29.88F
OCEAN CITY     MOSUNNY   88  70  55 SW12G18   29.87F
WALLOPS ISLAND MOSUNNY   90  65  43 SW9       29.89F
ACCOMACK*      SUNNY     88  79  74 W9        29.89F HX 102
$$

NCZ012>017-030>032-011800-
NORTH CENTRAL AND EASTERN NORTH CAROLINA

CITY           SKY/WX    TMP DP  RH WIND       PRES   REMARKS
ROANOKE RAPIDS FAIR      88  57  35 CALM      29.92F
RALEIGH        MOSUNNY   89  60  37 NE6       29.95F
ELIZABETH CITY MOSUNNY   89  68  49 SE6       29.92F
AHOSKIE*       SUNNY     88  60  38 CALM      29.92F
EDENTON*         N/A     88  67  50 S5        29.92F
CURRITUCK*     PTSUNNY   87  62  42 CALM      29.93F
KILL DEVIL HLS SUNNY     88  72  60 S7        29.92F
MANTEO         PTSUNNY   82  74  77 S13       29.94F
CAPE HATTERAS  CLOUDY    84  74  71 S8        29.93F
TARBORO*         N/A     91  60  35 SW3       29.93F
GOLDSBORO      MOSUNNY   91  66  42 VRB2      29.91F
WASHINGTON     MOSUNNY   88  63  43 CALM      29.92F
GREENVILLE     SUNNY     90  59  35 CALM      29.94F
NEW BERN       MOSUNNY   91  71  51 NW6       29.93F HX  97
WILMINGTON     MOSUNNY   87  73  62 CALM      29.93F
$$

VAZ048-011800-
ELSEWHERE

CITY           SKY/WX    TMP DP  RH WIND       PRES   REMARKS
HARRISBURG PA  MOSUNNY   86  53  32 W13G21    29.86F
BALTIMORE      PTSUNNY   87  59  38 W5        29.88F
ANNAPOLIS      CLOUDY    83  63  50 VRB5      29.88S
ANDREWS AFB    NOT AVBL
PHILADELPHIA   MOSUNNY   88  53  30 W15       29.86S
HENDERSON NC   SUNNY     87  51  29 W5        29.95F
GREENSBORO     MOSUNNY   88  55  32 N7        29.97F
ROCKY MOUNT    SUNNY     90  57  32 NW5       29.93F
$$

VAZ100-011800-
MARINE

STATION/POSITION TIME  TEMP    WIND        PRES    WAVE   SWELL
                       AIR SEA DIR/SP/G            HT/PER HT/PER
                 (UTC) (F)     (DEG/KT/KT) (MB)    (FT/S) (FT/S)
BRANDYWINE LGT   1600   81 75  220/  5/  6 1012.0R
CAPE MAY NJ      1600   81 75  230/  7/  9 1011.5R
LEWES DE         1600   86 73  240/  6/  9 1011.6R
15NM E FENWICK I 1650   80 79  210/ 12/ 14 1012.0F   3/ 8   2/ 8
OCEAN-CITY-INLET 1600   81 73  210/  7/ 10 1011.3R
WACHAPREAGUE VA  1606   88 84  230/  7/ 11 1012.8R
GOOSES REEF MD   1700   85 84     CALM     1013.0F
COVE POINT MD    1600   85     310/  2/  4 1012.9R
SOLOMONS ISLAND  1600      83                N/A
BISHOPS HEAD MD  1600   81 83  240/  7/  8 1011.6R
PINEY POINT MD   1600          230/  2/  2   N/A
POTOMAC MD       1700   84 84  290/  4/  4 1011.0F   0
CAMBRIDGE MD     1600   83 84  350/  5/  8 1011.2S
LEWISETTA VA     1600   85 83  260/  3/  4 1012.2R
RAPPAHANNOCK LGT 1600          200/ 10/ 11 1013.3S
STINGRAY PT      1700   86 84  230/  6/  8 1012.4F   1
YORK RVR RNG VA  1600   85     280/  3/  3 1012.7R
YORKTOWN VA      1600   86 84  240/  7/  9 1012.8R
JAMESTOWN VA     1700   86 87   CALM  /  4   N/A
DOMINION TERM VA 1600   83     220/  6/  7 1013.2R
KIPTOPEKE VA     1600      81  240/  7/ 10   N/A
CHES BAY BRIDGE  1600   83 76  290/  4/  5 1012.7F
CAPE HENRY VA    1600   82      50/  7/  9   N/A
CHESAPEAKE LGHT  1600   81     180/ 12/ 12 1014.1S
WILLOUBY STN VA  1600   83     260/  8/  9 1014.1F
CAPE HENRY BUOY  1628      82                N/A     2/ 8   2/11
1ST LANDING BUOY 1700      82              1012.6F   1/ 3
CAPE CHARLES BUO 1626      81                N/A     2/ 8   2/ 8
OFFSHORE WE BUOY 1611      82                N/A     3/ 8   3/ 8
64NM E OF VA BCH 1650   81 81  200/ 14/ 16 1013.2F   3/ 8   3/ 8
DUCK PIER NC     1600   80 79  130/ 13/ 15 1012.9F
44100 DUCK FRF   1624      81                N/A     3/ 8
44056 DUCK FRF   1611      79                N/A     2/ 8   2/13
OREGON INLET NC  1600   79 81  180/ 12/ 15 1014.1R
HATTERAS NC      1600   80 80  140/ 15/ 17 1013.7S
DIAMOND SHLS NC  1650   80 85  170/ 10/ 12 1013.4F   3/ 7   3/ 7
CAPE LOOKOUT NC  1700   83     240/  8/ 10 1013.1F
$$



USA.gov is the U.S. government's official web portal to all federal, state and local government web resources and services.